Rhinelander, WI

2:42 PM CST on November 22, 2017 (GMT -0600)
Rhinelander-Oneida County

Weather History for KRHI - March, 2014

Change the Weather History Date:

Friday, March 21, 2014

  Actual Average Record
Temperature  
Mean Temperature 25 °F 29 °F  
Max Temperature 38 °F 39 °F 74 °F (2012)
Min Temperature 11 °F 19 °F -12 °F (1989)
Degree Days  
Heating Degree Days 40 36  
Month to date heating degree days 1016 842  
Since 1 July heating degree days 8645 7464  
Cooling Degree Days 0 0  
Month to date cooling degree days 0 0  
Year to date cooling degree days 0 0  
Moisture  
Dew Point 22 °F    
Average Humidity 72    
Maximum Humidity 92    
Minimum Humidity 52    
Precipitation  
Precipitation 0.01 in 0.06 in 0.48 in (1991)
Month to date precipitation 0.25 0.99  
Year to date precipitation 2.86 3.03  
Snow  
Snow 0.20 in - 6.00 in (1955)
Month to date snowfall 5.3  
Since 1 July snowfall 77.8  
Snow Depth 23.00 in    
Sea Level Pressure  
Sea Level Pressure 29.86 in    
Wind  
Wind Speed 5 mph (East)    
Max Wind Speed 20 mph    
Max Gust Speed 27 mph    
Visibility 6 miles    
Events Snow    
T = Trace of Precipitation, MM = Missing Value Source: NWS Daily Summary

Daily Weather History Graph

Daily Weather History Graph

Search for Another Location

Airport or City:

Trip Planner

Search our weather history database for the weather conditions in past years. The results will help you decide how hot, cold, wet, or windy it might be!

Date:

Astronomy

Mar. 21, 2014 Rise Set
Actual Time 6:58 AM CDT 7:11 PM CDT
Civil Twilight 6:29 AM CDT 7:41 PM CDT
Nautical Twilight 5:54 AM CDT 8:16 PM CDT
Astronomical Twilight 5:18 AM CDT 8:52 PM CDT
Moon No Moon Rise 9:37 AM CDT (3/21)
Length of Visible Light 13h 12m
Length of Day
12h 12m
Waning Gibbous, 75% of the Moon is Illuminated
Mar 21
Waning Gibbous
Mar 23
Last Quarter
Mar 30
New
Apr 7
First Quarter
Apr 15
Full

Hourly Weather History & Observations

Time (CDT) Temp. Windchill Dew Point Humidity Pressure Visibility Wind Dir Wind Speed Gust Speed Precip Events Conditions
12:53 AM 18.0 °F - 14.0 °F 84% 30.02 in 10.0 mi Calm Calm - N/A   Clear
1:53 AM 19.0 °F - 14.0 °F 81% 30.00 in 10.0 mi Calm Calm - N/A   Partly Cloudy
2:53 AM 17.1 °F - 12.9 °F 84% 29.99 in 10.0 mi Calm Calm - N/A   Clear
3:53 AM 15.1 °F - 12.9 °F 91% 29.99 in 9.0 mi Calm Calm - N/A   Clear
4:23 AM 12.9 °F - 12.9 °F 100% 29.91 in 1.2 mi Calm Calm - N/A   Clear
4:41 AM 14.0 °F - 12.0 °F 92% 29.90 in 2.5 mi Calm Calm - N/A   Clear
4:48 AM 12.2 °F - 10.4 °F 92% 29.90 in 5.0 mi Calm Calm - N/A   Clear
4:53 AM 12.0 °F 5.9 °F 10.0 °F 92% 29.97 in 8.0 mi East 3.5 mph - N/A   Clear
5:53 AM 12.9 °F - 10.0 °F 88% 29.96 in 9.0 mi Calm Calm - N/A   Clear
6:53 AM 14.0 °F - 10.9 °F 88% 29.98 in 9.0 mi Calm Calm - N/A   Clear
7:53 AM 18.0 °F - 16.0 °F 92% 29.97 in 7.0 mi Calm Calm - N/A   Clear
8:53 AM 24.1 °F 19.7 °F 19.9 °F 84% 29.96 in 10.0 mi ESE 3.5 mph - N/A   Partly Cloudy
9:53 AM 30.0 °F 22.4 °F 19.9 °F 66% 29.91 in 10.0 mi SSE 8.1 mph - N/A   Overcast
10:53 AM 32.0 °F 24.2 °F 21.0 °F 64% 29.87 in 10.0 mi SSE 9.2 mph - N/A   Overcast
11:53 AM 34.0 °F 24.2 °F 21.0 °F 59% 29.86 in 10.0 mi SSE 15.0 mph 23.0 mph N/A   Overcast
12:53 PM 36.0 °F 28.0 °F 21.0 °F 55% 29.83 in 10.0 mi SSE 11.5 mph 23.0 mph N/A   Overcast
1:53 PM 37.0 °F 27.7 °F 21.0 °F 52% 29.83 in 10.0 mi SSW 16.1 mph - N/A   Overcast
2:53 PM 37.0 °F 33.3 °F 21.0 °F 52% 29.80 in 10.0 mi ESE 4.6 mph - N/A   Overcast
3:53 PM 36.0 °F 29.6 °F 21.9 °F 57% 29.77 in 10.0 mi SE 8.1 mph - 0.00 in   Overcast
4:53 PM 35.1 °F 28.6 °F 23.0 °F 61% 29.79 in 8.0 mi SSE 8.1 mph - N/A   Overcast
5:53 PM 34.0 °F 29.8 °F 25.0 °F 70% 29.79 in 10.0 mi SE 4.6 mph - 0.00 in   Overcast
6:45 PM 33.1 °F 30.0 °F 27.0 °F 78% 29.72 in 2.0 mi ESE 3.5 mph - 0.00 in Snow Light Snow
6:53 PM 32.0 °F 28.7 °F 27.0 °F 82% 29.80 in 3.0 mi East 3.5 mph - 0.00 in Snow Light Snow
7:14 PM 32.0 °F - 27.0 °F 82% 29.73 in 2.5 mi Calm Calm - 0.00 in Snow Light Snow
7:23 PM 32.0 °F - 28.0 °F 85% 29.73 in 1.5 mi Calm Calm - 0.00 in Snow Light Snow
7:50 PM 30.2 °F - 28.4 °F 93% 29.74 in 2.0 mi Calm Calm - 0.00 in Snow Light Snow
7:53 PM 30.9 °F - 28.9 °F 92% 29.82 in 2.5 mi Calm Calm - 0.00 in Snow Light Snow
8:10 PM 30.9 °F - 28.9 °F 92% 29.75 in 3.0 mi Calm Calm - 0.00 in Snow Light Snow
8:53 PM 30.9 °F - 28.9 °F 92% 29.83 in 3.0 mi Calm Calm - 0.00 in Snow Light Snow
9:14 PM 30.9 °F 26.2 °F 28.9 °F 92% 29.77 in 5.0 mi NE 4.6 mph - 0.00 in   Overcast
9:44 PM 30.9 °F 27.5 °F 28.9 °F 92% 29.79 in 4.0 mi North 3.5 mph - 0.00 in Snow Light Snow
9:53 PM 30.9 °F 27.5 °F 28.9 °F 92% 29.85 in 3.0 mi North 3.5 mph - 0.00 in Snow Light Snow
10:00 PM 30.9 °F 27.5 °F 28.9 °F 92% 29.79 in 3.0 mi NNW 3.5 mph - 0.00 in Snow Light Snow
10:16 PM 30.9 °F 26.2 °F 28.9 °F 92% 29.80 in 4.0 mi NNW 4.6 mph - 0.00 in   Overcast
10:48 PM 30.2 °F 25.4 °F 28.4 °F 93% 29.82 in 5.0 mi Variable 4.6 mph - 0.00 in   Overcast
10:53 PM 30.9 °F 26.2 °F 28.9 °F 92% 29.87 in 5.0 mi WNW 4.6 mph - 0.00 in   Overcast
11:23 PM 32.0 °F 22.1 °F 28.0 °F 85% 29.83 in 9.0 mi NW 13.8 mph 20.7 mph N/A   Overcast
11:31 PM 32.0 °F 24.2 °F 28.0 °F 85% 29.83 in 10.0 mi NW 9.2 mph 20.7 mph N/A   Overcast
11:53 PM 30.9 °F 20.7 °F 28.0 °F 89% 29.90 in 4.0 mi NW 13.8 mph 20.7 mph 0.00 in Snow Light Snow